Regional Weather Roundup
Issued by NWS

Home | Current Version | Previous Version | Text Only | Print | Product List | Glossary Off
Versions: 1 2 3 4 5 6 7 8 9 10 11 12 13 14 15 16 17 18 19 20 21 22 23 24 25 26 27 28 29 30 31 32 33 34 35 36 37 38 39 40 41 42 43 44 45 46 47 48 49 50

970
ASUS43 KDMX 260901
RWRIA

WEATHER ROUNDUP FOR IOWA
NATIONAL WEATHER SERVICE DES MOINES IA
400 AM CDT WED JUL 26 2017

NOTE: "FAIR" INDICATES FEW OR NO CLOUDS BELOW 12,000 FEET WITH NO
SIGNIFICANT WEATHER AND/OR OBSTRUCTIONS TO VISIBILITY.

* - THESE STATIONS ARE NOT NWS STATIONS...THUS NOT UNDER NWS
QUALITY CONTROL.  THEY ALSO DO NOT REPORT WEATHER SUCH
AS PRECIPITATION OR FOG.

IAZ001>003-012>014-020>022-031>034-043>046-261000-
   NORTHWEST IOWA

CITY           SKY/WX    TMP DP  RH WIND       PRES   REMARKS
CARROLL *      CLOUDY    77  75  94 S9        29.95F
DENISON *      CLOUDY    77  73  88 S13G21    29.96S
ORANGE CITY *  RAIN      72  70  94 NW5       30.00S
SHELDON *      DRIZZLE   72  70  94 W5        29.97S
SIOUX CITY     LGT RAIN  74  72  93 N12       29.97R
SPENCER        CLOUDY    77  74  90 SW5       29.97F
STORM LAKE *   CLOUDY    77  73  88 CALM      30.00F
$$

IAZ055>058-069>071-079>083-090>094-261000-
   SOUTHWEST IOWA

CITY           SKY/WX    TMP DP  RH WIND       PRES   REMARKS
ATLANTIC *     CLOUDY    77  73  88 S8        29.96F
AUDUBON *      CLOUDY    77  72  83 S7        29.97F
CLARINDA *     MOCLDY    77  75  94 S8        29.99S
COUNCIL BLFS * CLOUDY    79  77  94 S13       29.95R HX  83
CRESTON *      CLOUDY    75  70  83 SE10      30.01F
HARLAN  *      CLOUDY    77  75  94 S9        29.99S
LAMONI         CLOUDY    75  69  81 S7        30.02S
RED OAK *      CLOUDY    79  73  83 S8        29.96S HX  82
SHENANDOAH *   CLOUDY    79  75  89 S9        29.95F HX  82
$$

IAZ047>049-059>061-072>074-084-261000-
   CENTRAL IOWA

CITY           SKY/WX    TMP DP  RH WIND       PRES   REMARKS
AMES           CLOUDY    73  72  96 SE8       29.99S
ANKENY *       CLOUDY    75  70  83 CALM      30.00S
BOONE *        CLOUDY    73  72  94 S5        29.98F
CHARITON *     PTCLDY    73  68  83 S9        30.01S
DES MOINES     CLOUDY    77  70  79 S7        29.99S
GRINNELL*      CLOUDY    72  67  84 SE7       30.03F
KNOXVILLE *    CLOUDY    73  68  83 SE7       30.00S
MARSHALLTOWN   CLOUDY    72  68  87 S9        30.00F
NEWTON *       CLOUDY    72  68  88 S6        30.01S
PELLA *        PTCLDY    74  67  78 SE5       30.02F
PERRY *          N/A     75  74  96 SE6       29.98F
$$

IAZ004>006-015-016-023>025-035-036-261000-
   NORTH CENTRAL IOWA

CITY           SKY/WX    TMP DP  RH WIND       PRES   REMARKS
ALGONA *       CLOUDY    77  77 100 SW8       29.99R
CLARION *      CLOUDY    73  73 100 S12       29.97F
ESTHERVILLE    CLOUDY    74  74 100 S6        29.97F
FORT DODGE *   CLOUDY    77  72  83 S7        29.98S
MASON CITY     CLOUDY    72  69  90 S9        29.99F
FOREST CITY *    N/A     73  72  94 S5        29.98R
WEBSTER CITY * CLOUDY    73  72  94 SE7       29.95F
IOWA FALLS *     N/A     73  69  88 S6        30.01R
$$

IAZ007>011-017>019-026>030-037>042-050>054-066-261000-
   NORTHEAST IOWA

CITY           SKY/WX    TMP DP  RH WIND       PRES   REMARKS
CHARLES CITY * MOCLDY    72  72 100 S8        30.00S
DECORAH *      CLOUDY    72  68  88 S8G15     29.99F
DUBUQUE        CLOUDY    68  66  93 S12       30.04F
MONTICELLO *   PTCLDY    70  68  94 S8        30.03F
OELWEIN *      PTCLDY    70  70 100 S9        30.02F
WATERLOO       CLOUDY    72  68  87 SE8       29.99F
$$

IAZ064-065-067-068-078-261000-
   EAST CENTRAL IOWA

CITY           SKY/WX    TMP DP  RH WIND       PRES   REMARKS
DAVENPORT      MOCLDY    71  66  84 S9        30.07F
IOWA CITY      MOCLDY    71  68  90 S3        30.05F
MUSCATINE *    PTCLDY    72  68  88 CALM      30.05F
QUAD CITIES    PTCLDY    71  66  84 S6        30.05F
$$

IAZ062-063-075>077-085>089-095>099-261000-
   SOUTHEAST IOWA

CITY           SKY/WX    TMP DP  RH WIND       PRES   REMARKS
BURLINGTON     PTCLDY    72  69  90 SE9       30.05F
FAIRFIELD *    PTCLDY    72  68  88 SE9       30.02F
FORT MADISON * PTCLDY    72  70  94 SE5       30.06S
KEOKUK *       MOCLDY    72  70  94 SE8       30.03F
OSKALOOSA *      N/A     71  67  89 SE7       30.02F
OTTUMWA        PTCLDY    74  70  87 S9        30.01F
WASHINGTON *   CLOUDY    70  70 100 SE6       30.05F
$$

ABBREVIATIONS USED IN REMARKS
   TC - TEMPERATURES IN CELSIUS
  WCI - WIND CHILL INDEX
   HX - HEAT INDEX
  VSB - VISIBILITY
$$





USA.gov is the U.S. government's official web portal to all federal, state and local government web resources and services.